RYR22AC EPWA-LEPA

Flight info

Callsign RYR22AC
Flight time N/A
Altitude 36000
Route SOXER DCT VAMPU N869 UVIVI DCT NUDRO DCT ELVOT DCT BUDEX DCT DETSA/N0444F370 DCT PIDAD DCT TALEP DCT RARQU DCT BALEN/N0400F290 UT250 RIXOT
Aircraft B738/M-SDE2E3FGHIRWXY/LB1

Departure

Time 2026-05-07 15:29
Airport Warsaw Chopin Airport (EPWA)

Arrival

Time N/A
Airport Palma de Mallorca Airport (LEPA)
Time Latitude Longitude Altitude Speed Heading
2026-05-07 14:54 52.17212 20.96645 354 ft 0 kts 237°
2026-05-07 15:20 52.17215 20.96655 351 ft 2 kts 234°
2026-05-07 15:20 52.17224 20.96677 361 ft 2 kts 237°
2026-05-07 15:20 52.17233 20.96700 359 ft 2 kts 238°
2026-05-07 15:21 52.17242 20.96723 359 ft 2 kts 241°
2026-05-07 15:21 52.17252 20.96743 360 ft 2 kts 197°
2026-05-07 15:21 52.17268 20.96743 358 ft 2 kts 159°
2026-05-07 15:21 52.17272 20.96741 359 ft 0 kts 154°
2026-05-07 15:23 52.17270 20.96743 358 ft 4 kts 154°
2026-05-07 15:23 52.17214 20.96791 351 ft 11 kts 150°
2026-05-07 15:23 52.17149 20.96849 358 ft 10 kts 152°
2026-05-07 15:23 52.17086 20.96904 354 ft 10 kts 151°
2026-05-07 15:24 52.17024 20.96957 353 ft 10 kts 154°
2026-05-07 15:24 52.16957 20.97012 352 ft 12 kts 151°
2026-05-07 15:24 52.16862 20.97097 358 ft 19 kts 153°
2026-05-07 15:24 52.16751 20.97196 351 ft 17 kts 151°
2026-05-07 15:25 52.16639 20.97293 353 ft 19 kts 152°
2026-05-07 15:25 52.16573 20.97378 351 ft 6 kts 117°
2026-05-07 15:25 52.16546 20.97471 351 ft 12 kts 114°
2026-05-07 15:25 52.16507 20.97605 356 ft 14 kts 114°
2026-05-07 15:26 52.16469 20.97743 355 ft 13 kts 114°
2026-05-07 15:26 52.16424 20.97903 353 ft 20 kts 115°
2026-05-07 15:26 52.16362 20.98126 353 ft 22 kts 115°
2026-05-07 15:26 52.16308 20.98320 356 ft 16 kts 116°
2026-05-07 15:27 52.16256 20.98340 351 ft 6 kts 195°
2026-05-07 15:27 52.16217 20.98313 354 ft 6 kts 203°
2026-05-07 15:27 52.16192 20.98293 357 ft 6 kts 210°
2026-05-07 15:27 52.16154 20.98204 351 ft 13 kts 275°
2026-05-07 15:28 52.16191 20.98076 358 ft 12 kts 296°
2026-05-07 15:28 52.16226 20.97950 350 ft 13 kts 294°
2026-05-07 15:28 52.16350 20.97510 356 ft 79 kts 294°
2026-05-07 15:28 52.16673 20.96363 354 ft 141 kts 295°
2026-05-07 15:29 52.17140 20.94740 746 ft 163 kts 295°
2026-05-07 15:29 52.17612 20.93021 1546 ft 169 kts 297°
2026-05-07 15:29 52.18106 20.91235 2290 ft 179 kts 292°
2026-05-07 15:29 52.18228 20.89052 2566 ft 209 kts 264°
2026-05-07 15:30 52.18082 20.86569 2946 ft 227 kts 266°
2026-05-07 15:30 52.17967 20.83929 3361 ft 247 kts 268°
2026-05-07 15:30 52.18196 20.81092 4036 ft 256 kts 284°
2026-05-07 15:30 52.18639 20.78282 5030 ft 255 kts 283°
2026-05-07 15:31 52.19054 20.75456 5928 ft 259 kts 282°
2026-05-07 15:31 52.19465 20.72575 6761 ft 263 kts 281°
2026-05-07 15:31 52.19563 20.69623 7576 ft 263 kts 257°
2026-05-07 15:31 52.19018 20.66774 8443 ft 265 kts 250°
2026-05-07 15:32 52.18379 20.63944 9287 ft 268 kts 249°
2026-05-07 15:32 52.17730 20.61079 10112 ft 271 kts 249°
2026-05-07 15:32 52.17064 20.58111 10504 ft 291 kts 249°
2026-05-07 15:32 52.16343 20.54885 10690 ft 315 kts 249°
2026-05-07 15:33 52.15576 20.51440 11124 ft 329 kts 249°
2026-05-07 15:33 52.14815 20.47899 11836 ft 333 kts 250°
2026-05-07 15:33 52.14118 20.44289 12653 ft 335 kts 251°
2026-05-07 15:33 52.13437 20.40640 13433 ft 338 kts 251°
2026-05-07 15:34 52.12752 20.36961 14142 ft 342 kts 251°
2026-05-07 15:34 52.12054 20.33245 14801 ft 345 kts 250°
2026-05-07 15:34 52.11343 20.29487 15445 ft 349 kts 250°
2026-05-07 15:34 52.10621 20.25697 16093 ft 353 kts 250°
2026-05-07 15:35 52.09887 20.21868 16739 ft 356 kts 250°
2026-05-07 15:35 52.09154 20.18053 17365 ft 360 kts 250°
2026-05-07 15:35 52.08401 20.14142 17993 ft 364 kts 250°
2026-05-07 15:35 52.07639 20.10199 18578 ft 368 kts 250°
2026-05-07 15:36 52.06870 20.06221 19181 ft 369 kts 250°
2026-05-07 15:36 52.06099 20.02237 19804 ft 370 kts 249°
2026-05-07 15:36 52.05347 19.98366 20393 ft 372 kts 249°
2026-05-07 15:36 52.04564 19.94348 20932 ft 375 kts 249°
2026-05-07 15:37 52.03747 19.90313 21476 ft 377 kts 247°
2026-05-07 15:37 52.02883 19.86291 22052 ft 378 kts 246°
2026-05-07 15:37 52.02000 19.82265 22598 ft 380 kts 246°
2026-05-07 15:37 52.01107 19.78212 23115 ft 382 kts 246°
2026-05-07 15:38 52.00211 19.74134 23604 ft 385 kts 246°
2026-05-07 15:38 51.99311 19.70030 24016 ft 387 kts 246°
2026-05-07 15:38 51.98406 19.65898 24407 ft 390 kts 246°
2026-05-07 15:38 51.97497 19.61743 24802 ft 393 kts 246°
2026-05-07 15:39 51.96578 19.57553 25197 ft 395 kts 246°
2026-05-07 15:39 51.95656 19.53348 25581 ft 397 kts 246°
2026-05-07 15:39 51.94727 19.49124 25957 ft 399 kts 246°
2026-05-07 15:39 51.93790 19.44868 26321 ft 402 kts 246°
2026-05-07 15:40 51.92858 19.40649 26660 ft 404 kts 245°
2026-05-07 15:40 51.91906 19.36345 27027 ft 407 kts 245°
2026-05-07 15:40 51.90950 19.32029 27369 ft 409 kts 245°
2026-05-07 15:40 51.89985 19.27683 27711 ft 411 kts 245°
2026-05-07 15:41 51.89014 19.23318 28037 ft 413 kts 245°
2026-05-07 15:41 51.88036 19.18927 28378 ft 416 kts 245°
2026-05-07 15:41 51.87050 19.14517 28696 ft 418 kts 245°
2026-05-07 15:41 51.86063 19.10086 29010 ft 420 kts 245°
2026-05-07 15:42 51.85089 19.05624 29381 ft 421 kts 246°
2026-05-07 15:42 51.84123 19.01167 29858 ft 419 kts 246°
2026-05-07 15:42 51.83196 18.96891 30293 ft 417 kts 245°
2026-05-07 15:42 51.82237 18.92488 30669 ft 415 kts 245°
2026-05-07 15:43 51.81270 18.88082 31009 ft 415 kts 245°
2026-05-07 15:43 51.80305 18.83696 31369 ft 414 kts 245°
2026-05-07 15:43 51.79339 18.79321 31745 ft 412 kts 245°
2026-05-07 15:43 51.78375 18.74966 32167 ft 411 kts 245°
2026-05-07 15:44 51.77416 18.70636 32587 ft 408 kts 245°
2026-05-07 15:44 51.76460 18.66332 32941 ft 407 kts 245°
2026-05-07 15:44 51.75504 18.62034 33277 ft 406 kts 245°
2026-05-07 15:44 51.74554 18.57771 33700 ft 403 kts 245°
2026-05-07 15:45 51.73605 18.53518 34055 ft 401 kts 245°
2026-05-07 15:45 51.72658 18.49289 34267 ft 403 kts 245°
2026-05-07 15:45 51.71702 18.45032 34424 ft 405 kts 245°
2026-05-07 15:45 51.70742 18.40761 34647 ft 405 kts 245°
2026-05-07 15:46 51.68819 18.32230 35086 ft 405 kts 245°
2026-05-07 15:46 51.67853 18.27953 35286 ft 406 kts 245°
2026-05-07 15:46 51.66885 18.23678 35479 ft 407 kts 245°
2026-05-07 15:47 51.65914 18.19399 35686 ft 407 kts 245°
2026-05-07 15:47 51.64939 18.15114 35914 ft 407 kts 246°
2026-05-07 15:47 51.63963 18.10830 35982 ft 411 kts 246°
2026-05-07 15:48 51.61974 18.02120 35997 ft 418 kts 246°
2026-05-07 15:48 51.59937 17.93558 35990 ft 419 kts 240°
2026-05-07 15:49 51.56670 17.85839 35995 ft 415 kts 226°
2026-05-07 15:49 51.52429 17.79697 35994 ft 413 kts 218°
2026-05-07 15:50 51.47975 17.73881 35994 ft 413 kts 218°
2026-05-07 15:50 51.43534 17.68055 35986 ft 412 kts 218°
2026-05-07 15:51 51.39118 17.62236 35998 ft 410 kts 218°
2026-05-07 15:51 51.34726 17.56451 35989 ft 408 kts 218°
2026-05-07 15:52 51.30345 17.50696 35982 ft 407 kts 218°
2026-05-07 15:52 51.25973 17.44966 35979 ft 406 kts 218°
2026-05-07 15:53 51.21618 17.39272 35987 ft 405 kts 218°
2026-05-07 15:53 51.17261 17.33592 35999 ft 405 kts 218°
2026-05-07 15:54 51.13216 17.27292 36004 ft 408 kts 224°
2026-05-07 15:54 51.09339 17.20659 36001 ft 410 kts 225°
2026-05-07 15:55 51.05455 17.14055 35996 ft 412 kts 224°
2026-05-07 15:55 51.01502 17.07411 35985 ft 414 kts 224°
2026-05-07 15:56 50.97534 17.00782 35987 ft 416 kts 224°
2026-05-07 15:56 50.93601 16.94233 35992 ft 418 kts 224°
2026-05-07 15:57 50.89587 16.87566 35984 ft 419 kts 224°